Sugar Grove, IL

5:26 AM CST on December 05, 2016 (GMT -0600)
Aurora Municipal

Weather History for KARR - December, 2012

Change the Weather History Date:

Sunday, December 30, 2012

  Actual Average Record
Temperature  
Mean Temperature 22 °F 22 °F  
Max Temperature 32 °F 30 °F 59 °F (2002)
Min Temperature 12 °F 14 °F -2 °F (2013)
Degree Days  
Heating Degree Days 43 43  
Month to date heating degree days 907 1192  
Since 1 July heating degree days 2414 2606  
Cooling Degree Days 0 0  
Month to date cooling degree days 0 0  
Year to date cooling degree days 1007 655  
Moisture  
Dew Point 18 °F    
Average Humidity 81    
Maximum Humidity 92    
Minimum Humidity 69    
Precipitation  
Precipitation 0.00 in 0.04 in 0.29 in (2005)
Month to date precipitation 1.46 1.92  
Year to date precipitation 23.99 36.82  
Sea Level Pressure  
Sea Level Pressure 30.27 in    
Wind  
Wind Speed 8 mph (SW)    
Max Wind Speed 18 mph    
Max Gust Speed 23 mph    
Visibility 7 miles    
Events      
T = Trace of Precipitation, MM = Missing Value Source: NWS Daily Summary

Daily Weather History Graph

Daily Weather History Graph

Search for Another Location

Airport or City:

Trip Planner

Search our weather history database for the weather conditions in past years. The results will help you decide how hot, cold, wet, or windy it might be!

Date:

Astronomy

Dec. 30, 2012 Rise Set
Actual Time 7:21 AM CST 4:32 PM CST
Civil Twilight 6:49 AM CST 5:04 PM CST
Nautical Twilight 6:14 AM CST 5:39 PM CST
Astronomical Twilight 5:40 AM CST 6:12 PM CST
Moon 7:05 PM CST (12/30) 8:27 AM CST (12/30)
Length of Visible Light 10h 14m
Length of Day
9h 11m
Waning Gibbous, 95% of the Moon is Illuminated
Dec 30
Waning Gibbous
Jan 4
Last Quarter
Jan 11
New
Jan 18
First Quarter
Jan 26
Full

Hourly Weather History & Observations

Time (CST) Temp. Windchill Dew Point Humidity Pressure Visibility Wind Dir Wind Speed Gust Speed Precip Events Conditions
12:52 AM 14.0 °F 3.9 °F 10.9 °F 88% 30.27 in 6.0 mi WSW 6.9 mph - N/A   Clear
1:52 AM 12.9 °F 6.9 °F 10.0 °F 88% 30.28 in 6.0 mi SW 3.5 mph - N/A   Clear
2:52 AM 12.0 °F 2.7 °F 9.0 °F 88% 30.30 in 6.0 mi West 5.8 mph - N/A   Clear
3:52 AM 12.0 °F 2.7 °F 9.0 °F 88% 30.32 in 6.0 mi SW 5.8 mph - N/A   Clear
4:52 AM 12.9 °F 2.6 °F 9.0 °F 84% 30.33 in 6.0 mi WSW 6.9 mph - N/A   Clear
5:52 AM 12.0 °F 2.7 °F 9.0 °F 88% 30.34 in 5.0 mi SW 5.8 mph - N/A   Clear
6:52 AM 12.0 °F 5.9 °F 9.0 °F 88% 30.34 in 5.0 mi SW 3.5 mph - N/A   Clear
7:52 AM 12.9 °F 3.8 °F 10.9 °F 92% 30.36 in 4.0 mi SW 5.8 mph - N/A   Clear
8:52 AM 16.0 °F 7.4 °F 12.9 °F 88% 30.36 in 4.0 mi WSW 5.8 mph - N/A   Clear
9:52 AM 19.9 °F 12.1 °F 15.1 °F 81% 30.38 in 5.0 mi WSW 5.8 mph - N/A   Haze
10:52 AM 23.0 °F 15.8 °F 17.1 °F 78% 30.36 in 6.0 mi SW 5.8 mph - N/A   Haze
11:52 AM 28.0 °F 18.6 °F 19.9 °F 72% 30.33 in 6.0 mi SW 10.4 mph - 0.01 in   Haze
12:52 PM 30.0 °F 19.1 °F 21.9 °F 72% 30.31 in 7.0 mi SSW 15.0 mph - N/A   Clear
1:52 PM 30.0 °F 21.1 °F 21.0 °F 69% 30.28 in 8.0 mi SW 10.4 mph - N/A   Clear
2:52 PM 30.9 °F 23.5 °F 21.0 °F 67% 30.26 in 9.0 mi SW 8.1 mph - N/A   Clear
3:52 PM 30.0 °F 24.1 °F 21.9 °F 72% 30.27 in 9.0 mi South 5.8 mph - N/A   Clear
4:52 PM 28.9 °F 23.9 °F 23.0 °F 78% 30.25 in 9.0 mi South 4.6 mph - N/A   Clear
5:52 PM 28.9 °F 21.9 °F 24.1 °F 82% 30.24 in 9.0 mi South 6.9 mph - N/A   Clear
6:52 PM 30.0 °F 21.1 °F 25.0 °F 82% 30.21 in 9.0 mi South 10.4 mph - N/A   Clear
7:52 PM 30.9 °F 22.2 °F 26.1 °F 82% 30.18 in 10.0 mi South 10.4 mph - N/A   Clear
8:52 PM 32.0 °F 22.1 °F 27.0 °F 82% 30.16 in 9.0 mi South 13.8 mph - N/A   Clear
9:52 PM 30.9 °F 19.4 °F 25.0 °F 79% 30.15 in 10.0 mi South 17.3 mph 20.7 mph N/A   Clear
10:52 PM 30.9 °F 21.2 °F 24.1 °F 76% 30.13 in 10.0 mi South 12.7 mph - N/A   Clear
11:52 PM 30.9 °F 20.7 °F 24.1 °F 76% 30.10 in 10.0 mi SSW 13.8 mph - N/A   Clear